Date String (YYYY-MM-DD hh:mm:ss) UTC,Instrument flags,absolute air pressure of the measurement (hPa),sample flow rate (lpm),inlet stack bypass flow (lpm),air temperature of the measurement (°C),ambient temperature measured by the external sensor (°C),aerosol sample conditioner tube jacket temperature (°C),OPC LED temperature (°C),internal box temperature (°C),relative humidity of the measurement (%),span deviation,mass concentration of particles derived from Lorenz-Mie calculation of OPC scattering (μg/m³),mass concentration of particles derived from Lorenz-Mie calculation of OPC scattering (μg/m³),mass concentration of particles derived from Lorenz-Mie calculation of OPC scattering (μg/m³)
DateTimeUTC,F1_M11,P_M11,Q1_M11,Q2_M11,T1_M11,T2_M11,T3_M11,T4_M11,T5_M11,U1_M11,ZSPAN_M11,X0_M11,X2_M11,X1_M11
2023-07-25 03:00:00,SystemResetWarning,0835.3,5.00,000.00,029.4,025.7,000.0,037.7,030.3,32.6,0000.0,0011.37,0005.27,0004.40
2023-07-25 03:01:00,SystemResetWarning,0835.3,5.00,000.00,029.4,026.2,000.0,037.8,030.4,32.5,0000.0,0011.62,0005.27,0004.40
2023-07-25 03:02:00,SystemResetWarning,0835.3,4.99,000.00,029.4,026.6,000.0,037.8,030.5,32.6,0000.0,0010.88,0005.24,0004.38
2023-07-25 03:03:00,SystemResetWarning,0835.3,5.00,000.00,029.4,026.9,000.0,037.8,030.6,32.6,0000.0,0009.80,0005.20,0004.37
2023-07-25 03:04:00,SystemResetWarning,0835.3,5.00,000.00,029.4,027.3,000.0,037.8,030.7,32.5,0000.0,0009.93,0005.22,0004.37
2023-07-25 03:05:00,SystemResetWarning,0835.3,4.99,000.00,029.5,027.5,000.0,037.8,030.8,32.4,0000.0,0010.08,0005.22,0004.38
2023-07-25 03:06:00,SystemResetWarning,0835.3,5.00,000.00,029.5,027.7,000.0,037.8,030.9,32.3,0000.0,0011.01,0005.22,0004.40
2023-07-25 03:07:00,SystemResetWarning,0835.3,5.00,000.00,029.5,026.6,000.0,037.7,030.8,32.1,0000.0,0011.16,0005.23,0004.42
2023-07-25 03:08:00,SystemResetWarning,0835.2,5.00,000.00,029.4,025.1,000.0,037.6,030.5,32.2,0000.0,0011.95,0005.30,0004.43
2023-07-25 03:09:00,SystemResetWarning,0835.2,5.01,000.00,029.3,024.6,000.0,037.5,030.2,32.3,0000.0,0012.82,0005.38,0004.46
2023-07-25 03:10:00,SystemResetWarning,0835.1,5.01,000.00,029.2,024.9,000.0,037.5,030.1,32.6,0000.0,0012.95,0005.44,0004.49
2023-07-25 03:11:00,SystemResetWarning,0835.2,4.99,000.00,029.1,025.3,000.0,037.5,030.1,32.8,0000.0,0013.55,0005.45,0004.50
2023-07-25 03:12:00,SystemResetWarning,0835.2,5.00,000.00,029.1,025.8,000.0,037.5,030.3,32.8,0000.0,0013.88,0005.44,0004.52
2023-07-25 03:13:00,SystemResetWarning,0835.3,5.00,000.00,029.1,026.2,000.0,037.5,030.4,32.8,0000.0,0014.53,0005.50,0004.55
2023-07-25 03:14:00,SystemResetWarning,0835.3,5.00,000.00,029.1,026.6,000.0,037.5,030.5,32.8,0000.0,0015.05,0005.53,0004.57
2023-07-25 03:15:00,SystemResetWarning,0835.3,5.00,000.00,029.2,027.0,000.0,037.6,030.6,32.9,0000.0,0015.36,0005.57,0004.60
2023-07-25 03:16:00,SystemResetWarning,0835.2,5.00,000.00,029.2,027.3,000.0,037.6,030.6,32.7,0000.0,0015.38,0005.55,0004.61
2023-07-25 03:17:00,SystemResetWarning,0835.2,5.00,000.00,029.2,027.5,000.0,037.6,030.7,32.7,0000.0,0014.61,0005.57,0004.62
2023-07-25 03:18:00,SystemResetWarning,0835.2,5.00,000.00,029.3,027.7,000.0,037.6,030.8,32.6,0000.0,0014.58,0005.58,0004.64
2023-07-25 03:19:00,SystemResetWarning,0835.2,4.98,000.00,029.3,027.1,000.0,037.5,030.8,32.5,0000.0,0013.85,0005.54,0004.63
2023-07-25 03:20:00,SystemResetWarning,0835.2,5.00,000.00,029.2,025.4,000.0,037.4,030.4,32.6,0000.0,0013.29,0005.48,0004.63
2023-07-25 03:21:00,SystemResetWarning,0835.2,5.00,000.00,029.1,024.7,000.0,037.3,030.2,32.9,0000.0,0014.00,0005.53,0004.62
2023-07-25 03:22:00,SystemResetWarning,0835.2,5.01,000.00,029.0,024.8,000.0,037.3,030.0,33.1,0000.0,0013.59,0005.51,0004.62
2023-07-25 03:23:00,SystemResetWarning,0835.2,5.01,000.00,028.9,025.2,000.0,037.3,030.0,33.2,0000.0,0013.41,0005.50,0004.60
2023-07-25 03:24:00,SystemResetWarning,0835.2,4.99,000.00,028.9,025.6,000.0,037.4,030.2,33.4,0000.0,0013.01,0005.48,0004.59
2023-07-25 03:25:00,SystemResetWarning,0835.2,5.00,000.00,028.9,026.1,000.0,037.4,030.3,33.5,0000.0,0012.75,0005.49,0004.58
2023-07-25 03:26:00,SystemResetWarning,0835.2,5.00,000.00,028.9,026.5,000.0,037.4,030.4,33.7,0000.0,0012.70,0005.50,0004.57
2023-07-25 03:27:00,SystemResetWarning,0835.3,5.00,000.00,029.0,026.9,000.0,037.4,030.5,33.8,0000.0,0013.18,0005.52,0004.56
2023-07-25 03:28:00,SystemResetWarning,0835.3,5.01,000.00,029.0,027.2,000.0,037.4,030.6,33.7,0000.0,0013.15,0005.51,0004.54
2023-07-25 03:29:00,SystemResetWarning,0835.2,5.00,000.00,029.0,027.4,000.0,037.4,030.6,33.6,0000.0,0013.15,0005.51,0004.54
2023-07-25 03:30:00,SystemResetWarning,0835.3,4.99,000.00,029.1,027.6,000.0,037.4,030.7,33.5,0000.0,0013.27,0005.51,0004.54
2023-07-25 03:31:00,SystemResetWarning,0835.3,4.99,000.00,029.1,027.4,000.0,037.4,030.7,33.3,0000.0,0013.13,0005.58,0004.54
2023-07-25 03:32:00,SystemResetWarning,0835.2,5.00,000.00,029.1,026.0,000.0,037.3,030.6,33.3,0000.0,0012.68,0005.59,0004.55
2023-07-25 03:33:00,SystemResetWarning,0835.2,5.00,000.00,029.1,025.4,000.0,037.2,030.4,33.4,0000.0,0012.95,0005.65,0004.56
2023-07-25 03:34:00,SystemResetWarning,0835.2,5.01,000.00,029.0,025.6,000.0,037.2,030.2,33.6,0000.0,0012.72,0005.68,0004.57
2023-07-25 03:35:00,SystemResetWarning,0835.2,5.01,000.00,028.9,025.9,000.0,037.3,030.3,33.8,0000.0,0012.78,0005.70,0004.57
2023-07-25 03:36:00,SystemResetWarning,0835.2,5.00,000.00,028.9,026.4,000.0,037.3,030.4,33.7,0000.0,0012.92,0005.74,0004.58
2023-07-25 03:37:00,SystemResetWarning,0835.3,5.00,000.00,029.0,026.7,000.0,037.3,030.5,33.7,0000.0,0012.76,0005.71,0004.58
2023-07-25 03:38:00,SystemResetWarning,0835.2,5.00,000.00,029.0,027.0,000.0,037.4,030.6,33.8,0000.0,0012.34,0005.72,0004.60
2023-07-25 03:39:00,SystemResetWarning,0835.2,5.00,000.00,029.0,027.3,000.0,037.4,030.6,33.7,0000.0,0012.31,0005.74,0004.63
2023-07-25 03:40:00,SystemResetWarning,0835.2,5.00,000.00,029.1,027.6,000.0,037.4,030.7,33.6,0000.0,0013.68,0005.83,0004.65
2023-07-25 03:41:00,SystemResetWarning,0835.2,5.00,000.00,029.1,027.5,000.0,037.4,030.7,33.5,0000.0,0014.55,0005.87,0004.65
2023-07-25 03:42:00,SystemResetWarning,0835.3,4.99,000.00,029.1,026.1,000.0,037.3,030.6,33.5,0000.0,0015.33,0005.86,0004.67
2023-07-25 03:43:00,SystemResetWarning,0835.3,5.02,000.00,029.0,025.4,000.0,037.2,030.4,33.6,0000.0,0015.41,0005.78,0004.66
2023-07-25 03:44:00,SystemResetWarning,0835.3,5.00,000.00,029.0,025.5,000.0,037.2,030.2,33.8,0000.0,0015.03,0005.74,0004.66
2023-07-25 03:45:00,SystemResetWarning,0835.3,4.99,000.00,028.9,025.9,000.0,037.3,030.2,33.8,0000.0,0015.07,0005.76,0004.67
2023-07-25 03:46:00,SystemResetWarning,0835.3,5.01,000.00,028.9,026.3,000.0,037.3,030.3,33.7,0000.0,0015.51,0005.80,0004.68
2023-07-25 03:47:00,SystemResetWarning,0835.2,5.02,000.00,028.9,026.7,000.0,037.3,030.4,33.6,0000.0,0015.77,0005.76,0004.68
2023-07-25 03:48:00,SystemResetWarning,0835.2,5.00,000.00,029.0,027.0,000.0,037.3,030.5,33.2,0000.0,0015.92,0005.74,0004.69
2023-07-25 03:49:00,SystemResetWarning,0835.2,4.99,000.00,029.0,027.3,000.0,037.4,030.6,33.0,0000.0,0015.93,0005.71,0004.68
2023-07-25 03:50:00,SystemResetWarning,0835.2,4.99,000.00,029.0,027.6,000.0,037.4,030.7,33.0,0000.0,0015.93,0005.73,0004.68
2023-07-25 03:51:00,SystemResetWarning,0835.2,5.00,000.00,029.1,027.0,000.0,037.3,030.7,32.8,0000.0,0015.15,0005.74,0004.68
2023-07-25 03:52:00,SystemResetWarning,0835.3,5.00,000.00,029.0,025.7,000.0,037.2,030.4,32.9,0000.0,0014.47,0005.74,0004.69
2023-07-25 03:53:00,SystemResetWarning,0835.3,5.00,000.00,029.0,025.4,000.0,037.2,030.2,33.1,0000.0,0013.77,0005.71,0004.70
2023-07-25 03:54:00,SystemResetWarning,0835.3,5.02,000.00,028.9,025.6,000.0,037.2,030.1,33.3,0000.0,0013.37,0005.75,0004.72
2023-07-25 03:55:00,SystemResetWarning,0835.2,5.00,000.00,028.9,026.0,000.0,037.2,030.2,33.3,0000.0,0013.31,0005.83,0004.73
2023-07-25 03:56:00,SystemResetWarning,0835.2,5.00,000.00,028.9,026.4,000.0,037.3,030.3,33.3,0000.0,0013.65,0005.78,0004.74
2023-07-25 03:57:00,SystemResetWarning,0835.3,5.00,000.00,028.9,026.8,000.0,037.3,030.5,33.0,0000.0,0012.86,0005.73,0004.76
2023-07-25 03:58:00,SystemResetWarning,0835.2,5.01,000.00,028.9,027.1,000.0,037.3,030.6,32.7,0000.0,0012.45,0005.76,0004.79
2023-07-25 03:59:00,SystemResetWarning,0835.2,5.00,000.00,029.0,027.4,000.0,037.3,030.6,32.2,0000.0,0012.75,0005.81,0004.83
